Location: Champs
(48.8539°N, 2.6040°E)
Time: 17:58:51
(UTC+00:00)

Cosmos 2056 Rocket - Pass Details

Date: 03 June 2022
Orbit: 741 x 801 km, 74.0° (Epoch: 01 July)

Event Time Altitude Azimuth Distance (km) Brightness Sun altitude
Exits shadow 02:11:28 16° 201° (SSW) 1,926 5.0 -12.0°
Maximum altitude 02:15:44 88° 110° (ESE) 781 3.5 -11.6°
Drops below altitude 10° 02:21:05 10° 24° (NNE) 2,350 7.5 -11.1°
Sets 02:23:30 0° 24° (NNE) 3,292 8.6 -10.8°
